Regional Weather Roundup
Issued by NWS Memphis, TN

Home | Current Version | Previous Version | Text Only | Print | Product List | Glossary On
Versions: 1 2 3 4 5 6 7 8 9 10 11 12 13 14 15 16 17 18 19 20 21 22 23 24 25 26 27 28 29 30 31 32 33 34 35 36 37 38 39 40 41 42 43 44 45 46 47 48 49 50
276
ASUS44 KMEG 260310
RWRMEG
MEMPHIS CWA HOURLY WEATHER ROUNDUP
NATIONAL WEATHER SERVICE MEMPHIS TN
1000 PM CDT WED MAY 25 2016

...WEST TENNESSEE...

CITY           SKY/WX    TMP DP  RH WIND       PRES   REMARKS
MEMPHIS INTL   CLOUDY    74  66  76 SE9       30.07S
NWS MEMPHIS      N/A     69 N/A N/A MISG        N/A
JACKSON        CLEAR     66  62  87 S6        30.08F
LEXINGTON      PTCLDY    64  64 100 S5        30.10R
DYERSBURG      PTCLDY    66  63  88 S8        30.07S
UNION CITY     PTCLDY    66  66 100 S8        30.06S
PARIS          CLEAR     64  63  94 SW7       30.09R


...EASTERN ARKANSAS...

CITY           SKY/WX    TMP DP  RH WIND       PRES   REMARKS
JONESBORO      CLOUDY    73  69  87 S8        30.04S
WEST MEMPHIS   CLEAR     73  67  81 SE13      30.05S
BATESVILLE     MOCLDY    72  68  88 E5        30.04S
NEWPORT        PTCLDY    74  73  96 SE10      30.04S
WALNUT RIDGE   CLEAR     72  66  83 SE8       30.03S
BLYTHEVILLE    PTCLDY    69  65  86 S12       30.06S
SEARCY         CLOUDY    75  73  93 E3        30.04S
STUTTGART      MOCLDY    81  70  69 SE10      30.04R
PINE BLUFF     CLEAR     78  71  79 SE10      30.04R
MONTICELLO     MOCLDY    78  72  81 SE5       30.05R


...NORTH MISSISSIPPI...

CITY           SKY/WX    TMP DP  RH WIND       PRES   REMARKS
TUPELO         PTCLDY    73  61  65 E6        30.13R
OXFORD         PTCLDY    73  59  60 SE8       30.13R
BATESVILLE     MOCLDY    77  66  68 E5        30.10R
OLIVE BRANCH   PTCLDY    68  68 100 SE12G17   30.09S
TUNICA         MOCLDY    73  68  83 SE10      30.07S
CLARKSDALE     CLOUDY    81  70  69 SE10      30.07R
CORINTH          N/A    N/A N/A N/A MISG        N/A
GREENWOOD      MOCLDY    80  64  58 SE7       30.08R
COLUMBUS       CLEAR     73  65  74 SE5       30.12S
STARKVILLE     PTCLDY    77  63  61 E6        30.13R
GOLDEN TRIANGL PTCLDY    79  59  50 SE8       30.14R


...SOUTHEAST MISSOURI...

CITY           SKY/WX    TMP DP  RH WIND       PRES   REMARKS
KENNETT        CLOUDY    70  68  94 S7        30.04S
WEST PLAINS    MOCLDY    72  66  81 S10       30.04R
POPLAR BLUFF   CLEAR     69  66  90 S6        30.03R
CAPE GIRARDEAU CLOUDY    68  65  90 S7        30.03R


...NORTHWEST ALABAMA...

CITY           SKY/WX    TMP DP  RH WIND       PRES   REMARKS
MUSCLE SHOALS  PTCLDY    67  62  84 S7        30.13S


...MIDDLE TENNESSEE...

CITY           SKY/WX    TMP DP  RH WIND       PRES   REMARKS
NASHVILLE      MOCLDY    67  64  90 CALM      30.11R
CLARKSVILLE    PTCLDY    63  62  97 SE6       30.08S
COLUMBIA       PTCLDY    72  68  88 CALM      30.09S


...WESTERN KENTUCKY...

CITY           SKY/WX    TMP DP  RH WIND       PRES   REMARKS
PADUCAH        CLOUDY    69  64  84 VRB5      30.05R
FORT CAMPBELL  CLOUDY    66  66 100 SE5       30.08R


...CENTRAL ARKANSAS...

CITY           SKY/WX    TMP DP  RH WIND       PRES   REMARKS
LITTLE ROCK    MOCLDY    80  73  79 SE9       30.02R


SKY/WX REPORTED AS FAIR MEANS FEW OR NO CLOUDS BELOW
12 THOUSAND FEET.





USA.gov is the U.S. government's official web portal to all federal, state and local government web resources and services.